This demonstration page uses our WeatherBlox Daily Observations layout. Learn more.

Left ArrowRight Arrow

Hourly Observations for December 3, 2018

Temp ( °F °C ) Dew Point ( °F °C ) Humidity (%) Winds ( mph kmh ) Pressure ( in mb ) Visibility ( mi km ) Precip ( " mm )
12:47 am 00:47 Cloudy 21 -6 18 -8 86 86 N 15 24 30.27 1025 10 16 0.00 0.00
12:57 am 00:57 Cloudy 21 -6.1 18 -7.8 88 88 N 16 26 30.20 1023 10 16 0.00 0.00
1:57 am 01:57 Cloudy 21 -6.1 18 -7.8 88 88 N 14 22 30.22 1023 10 16 0.00 0.00
2:57 am 02:57 Cloudy 20 -6.7 18 -7.8 92 92 N 10 17 30.24 1024 10 16 0.00 0.00
3:57 am 03:57 Cloudy 20 -6.7 18 -7.8 92 92 N 12 19 30.25 1024 10 16 0.00 0.00
4:57 am 04:57 Cloudy 20 -6.7 17 -8.3 89 89 N 17 28 30.26 1025 10 16 0.00 0.03
5:57 am 05:57 Cloudy with Light Snow 20 -6.7 17 -8.3 89 89 N 13 20 30.28 1026 9 14 0.00 0.03
6:10 am 06:10 Cloudy 19 -7 18 -8 93 93 N 13 20 30.39 1029 9 14 0.00 0.03
6:57 am 06:57 Cloudy with Light Snow 19 -7.2 16 -8.9 88 88 N 15 24 30.31 1027 9 14 0.00 0.03
7:57 am 07:57 Cloudy with Light Snow 18 -7.8 15 -9.4 88 88 N 14 22 30.33 1027 9 14 0.00 0.03
8:57 am 08:57 Cloudy with Light Snow 18 -7.8 15 -9.4 88 88 N 15 24 30.35 1028 9 14 0.00 0.03
9:57 am 09:57 Cloudy with Light Snow 19 -7.2 15 -9.4 84 84 NNE 14 22 30.37 1029 9 14 0.00 0.03
10:57 am 10:57 Cloudy with Light Snow 20 -6.7 16 -8.9 85 85 N 12 19 30.38 1029 9 14 0.00 0.03
12:57 pm 12:57 Cloudy with Light Snow 21 -6.1 16 -8.9 81 81 N 13 20 30.37 1028 9 14 0.00 0.03
1:57 pm 13:57 Cloudy with Light Snow 22 -5.6 17 -8.3 82 82 N 9 15 30.35 1028 9 14 0.00 0.03
2:57 pm 14:57 Cloudy with Light Snow 22 -5.6 17 -8.3 82 82 NNW 8 13 30.35 1028 9 14 0.00 0.03
3:57 pm 15:57 Cloudy with Light Snow 21 -6.1 17 -8.3 85 85 N 12 19 30.36 1028 9 14 0.00 0.03
4:57 pm 16:57 Cloudy with Light Snow 21 -6.1 17 -8.3 85 85 N 9 15 30.37 1028 10 16 0.00 0.03
5:45 pm 17:45 Cloudy with Light Snow 21 -6 18 -8 86 86 N 12 19 30.42 1030 9 14 0.00 0.00
5:57 pm 17:57 Cloudy with Light Snow 21 -6.1 17 -8.3 85 85 NNW 9 15 30.37 1029 9 14 0.00 0.03
6:57 pm 18:57 Cloudy with Light Snow 21 -6.1 17 -8.3 85 85 N 9 15 30.38 1029 9 14 0.00 0.03
7:57 pm 19:57 Cloudy with Light Snow 21 -6.1 17 -8.3 85 85 N 9 15 30.39 1029 9 14 0.00 0.03
8:57 pm 20:57 Cloudy 21 -6.1 17 -8.3 85 85 NNE 9 15 30.38 1029 9 14 0.00 0.03
9:57 pm 21:57 Cloudy 21 -6.1 17 -8.3 85 85 NNE 6 9 30.38 1029 10 16 0.00 0.03
10:57 pm 22:57 Cloudy 21 -6.1 17 -8.3 85 85 Calm 30.38 1029 10 16 0.00 0.03
11:57 pm 23:57 Cloudy with Light Snow 21 -6.1 17 -8.3 85 85 Calm 30.37 1029 9 14 0.00 0.03

Powered by AerisWeather